Regional Weather Roundup
Issued by NWS

Home | Current Version | Previous Version | Text Only | Print | Product List | Glossary Off
Versions: 1 2 3 4 5 6 7 8 9 10 11 12 13 14 15 16 17 18 19 20 21 22 23 24 25 26 27 28 29 30 31 32 33 34 35 36 37 38 39 40 41 42 43 44 45 46 47 48 49 50

170
ASUS43 KFSD 011710
RWRSD

WEATHER ROUNDUP FOR SOUTH DAKOTA
NATIONAL WEATHER SERVICE SIOUX FALLS SD
1200 PM CDT SUN MAY 01 2016

NOTE: "FAIR" INDICATES FEW OR NO CLOUDS BELOW 12,000 FEET WITH NO
SIGNIFICANT WEATHER AND/OR OBSTRUCTIONS TO VISIBILITY.


SDZ001>005-009-010-012>017-011800-
NORTHWEST AND NORTH CENTRAL SOUTH DAKOTA

CITY           SKY/WX    TMP DP  RH WIND       PRES   REMARKS
BUFFALO          N/A     55  27  34 NE10G17   30.26F
FAITH            N/A     53  26  35 N16G22    30.30F
MOBRIDGE       SUNNY     57  34  41 NE9       30.27F
$$

SDZ012>016-024>037-041>051-057-063-072>074-011800-
SOUTHWEST AND SOUTH CENTRAL SOUTH DAKOTA

CITY           SKY/WX    TMP DP  RH WIND       PRES   REMARKS
RAPID CTY ARPT MOSUNNY   51  30  44 N14G24    30.32S
PIERRE         SUNNY     55  35  47 N12       30.27F
CUSTER         SUNNY     44  23  43 N14G23    30.30S
ELLSWORTH AFB  MOSUNNY   51  29  42 N14G23    30.32S
PHILIP         SUNNY     54  31  41 N12G26    30.30S
PINE RIDGE     MOSUNNY   49  30  48 N9        30.30F
WINNER         FAIR      54  34  46 N21G29    30.26S
$$

SDZ004>011-016>023-039-040-011800-
NORTHEAST SOUTH DAKOTA

CITY           SKY/WX    TMP DP  RH WIND       PRES   REMARKS
ABERDEEN       SUNNY     56  30  37 NE18G26   30.27F
WATERTOWN      SUNNY     53  31  42 NE18G25   30.21F
BROOKINGS      SUNNY     50  35  56 NE16G24   30.19F
SISSETON         N/A     56  29  35 NE15G28   30.24F
$$

SDZ017-020-022-023-036>040-048>070-011800-
SOUTHEAST SOUTH DAKOTA

CITY           SKY/WX    TMP DP  RH WIND       PRES   REMARKS
SIOUX FALLS    CLOUDY    49  40  71 N14       30.19S
HURON          SUNNY     53  33  46 NE14      30.24S
CHAMBERLAIN    SUNNY     54  35  48 N23G30    30.24S
MITCHELL       SUNNY     52  40  63 N16       30.23S
YANKTON        CLOUDY    45  41  87 N12       30.20S
$$

ABBREVIATIONS USED IN REMARKS
   TC - TEMPERATURE IN CELSIUS
  WCI - WIND CHILL INDEX
   HX - HEAT INDEX
  VSB - VISIBILITY





USA.gov is the U.S. government's official web portal to all federal, state and local government web resources and services.